[[{"header":{"parameterUnit":"m.s-1","parameterCategory":1,"la1":30.2991,"la2":30.254,"lo1":-89.0895,"lo2":-89.0444,"dy":0.0017,"dx":0.0017,"nx":28,"ny":28,"refTime":"2023-09-04T21:00:00:Z","depth":0,"parameterNumber":2,"parameterNumberName":"U-component_of_WINDS"},"data":[0,0,0,0,0,0,0,0,0,0,0,0,0,0,0,0,0,0,0,0,0,0,0,0,0,0,0,0,0,0,0,0,0,0,0,0,0,0,0,0,0,0,0,0,0,0,0,0,0,0,0,0,0,0,0,0,0,0,-3.8805,-3.8805,0,-3.8795,-3.8795,-3.8795,-3.8714,-3.8712,-3.871,-3.8708,-3.8699,-3.87,-3.8702,0,0,0,0,0,0,0,0,0,0,0,0,0,-3.8753,-3.8755,-3.8805,-3.8805,-3.8805,-3.8796,-3.8795,-3.8795,-3.8714,-3.8711,-3.8709,-3.8707,-3.8698,-3.87,-3.8702,0,0,0,0,0,0,0,0,0,0,0,0,0,-3.8763,-3.8755,-3.8805,-3.8763,-3.8759,-3.8796,-3.8795,-3.8795,-3.8714,-3.8711,-3.8708,-3.8706,-3.8698,-3.87,-3.8702,-3.8778,0,0,-3.871,-3.8711,0,0,0,0,0,0,0,0,-3.8763,-3.8765,-3.8769,-3.8766,-3.8762,-3.8753,-3.8774,-3.879,-3.8715,-3.8731,-3.8708,-3.8704,-3.8719,-3.872,-3.8725,-3.8778,-3.8778,-3.871,-3.8712,-3.8713,-3.8713,0,0,0,0,0,0,0,-3.8762,-3.8765,-3.8801,-3.877,-3.8765,-3.8745,-3.8743,-3.8776,-3.8743,-3.873,-3.8724,-3.8724,-3.8716,-3.8722,-3.8724,-3.8778,-3.871,-3.8712,-3.8714,-3.8715,-3.8892,-3.8895,0,0,0,0,0,0,-3.8767,-3.8765,-3.8801,-3.8801,-3.8755,-3.8748,-3.8746,-3.8759,-3.8742,-3.8736,-3.8726,-3.872,-3.872,-3.8721,-3.8723,-3.881,-3.8713,-3.8715,-3.8716,-3.8889,-3.8893,-3.8896,0,0,0,0,0,0,-3.8766,-3.8771,-3.8802,-3.8781,-3.8784,-3.8752,-3.8767,-3.876,-3.8766,-3.8739,-3.8733,-3.8739,-3.8717,-3.872,-3.8765,-3.8808,-3.8716,-3.8718,-3.8885,-3.889,-3.8895,-3.8985,0,0,0,0,0,0,-3.8765,-3.8771,-3.88,-3.8783,-3.8785,-3.8844,-3.877,-3.8762,-3.877,-3.8762,-3.8749,-3.8744,-3.8715,-3.8762,-3.8768,-3.881,-3.872,-3.8881,-3.8887,-3.8893,-3.8978,-3.8992,-3.9004,0,0,0,0,0,-3.8764,-3.8826,-3.8802,-3.8806,-3.882,-3.8847,-3.8848,-3.8813,-3.8774,-3.8802,-3.8785,-3.8744,-3.8803,-3.8767,-3.8773,-3.8817,-3.8878,-3.8885,-3.8893,-3.8972,-3.8989,-3.9004,0,0,0,0,0,0,-3.8849,-3.8823,-3.8796,-3.8854,-3.8853,-3.8833,-3.8867,-3.8833,-3.8843,-3.8835,-3.8792,-3.879,-3.8841,-3.8834,-3.8794,-3.8889,-3.8834,-3.8842,-3.8892,-3.8908,-3.8921,-3.8921,-3.8722,0,0,0,0,0,-3.8875,-3.8899,-3.8874,-3.8929,-3.8929,-3.8899,-3.8909,-3.8882,-3.888,-3.8879,-3.8865,-3.8864,-3.8882,-3.8895,-3.8911,-3.8977,-3.8972,-3.901,-3.9024,-3.9035,-3.9042,-3.9075,-3.9091,-3.892,-3.892,-3.892,0,0,-3.8928,-3.8917,-3.8934,-3.8945,-3.8941,-3.8967,-3.8899,-3.8929,-3.8947,-3.8883,-3.8925,-3.8915,-3.8911,-3.8967,-3.8991,-3.8963,-3.9089,-3.9044,-3.9053,-3.9054,-3.9084,-3.9101,-3.9115,-3.8925,-3.8924,-3.8923,0,0,-3.9037,-3.9032,-3.9075,-3.9073,-3.9068,-3.9047,-3.9058,-3.9043,-3.9033,-3.9075,-3.9027,-3.9049,-3.9081,-3.908,-3.9084,-3.9194,-3.9156,-3.92,-3.9269,-3.9302,-3.9315,-3.9327,-3.9365,-3.9379,-3.9208,-3.9208,-3.9209,0,-3.9104,-3.914,-3.9102,-3.9135,-3.9141,-3.9085,-3.9128,-3.9128,-3.9129,-3.9134,-3.9102,-3.9141,-3.9135,-3.9189,-3.9216,-3.9222,-3.9232,-3.92,-3.9317,-3.9328,-3.9338,-3.9373,-3.9388,-3.9214,-3.9213,-3.9212,-3.9212,0,-3.9221,-3.9247,-3.9283,-3.9284,-3.9295,-3.9333,-3.9301,-3.9316,-3.9289,-3.9272,-3.9314,-3.9305,-3.9317,-3.9328,-3.9303,-3.9379,-3.9361,-3.9324,-3.9267,-3.936,-3.9393,-3.9406,-3.9221,-3.9219,-3.9218,-3.9216,0,0,-3.9383,-3.9363,-3.9376,-3.9376,-3.9366,-3.9386,-3.9422,-3.9433,-3.9446,-3.9449,-3.9477,-3.9506,-3.9471,-3.9476,-3.945,-3.9479,-3.9565,-3.9438,-3.9437,-3.946,-3.9647,-3.9674,-3.969,-3.9541,-3.9543,-3.9545,-3.9647,0,-3.9486,-3.9545,-3.9513,-3.9576,-3.9599,-3.9547,-3.9578,-3.9575,-3.9561,-3.9578,-3.9562,-3.9583,-3.9536,-3.9538,-3.9565,-3.9549,-3.9601,-3.9541,-3.9566,-3.9567,-3.9566,-3.9707,-3.9735,-3.9831,-3.9659,-3.9661,-3.9663,0,-3.9615,-3.9622,-3.9688,-3.9673,-3.9681,-3.971,-3.9717,-3.9735,-3.9731,-3.9719,-3.9724,-3.9691,-3.9725,-3.967,-3.9716,-3.9676,-3.9685,-3.9678,-3.9681,-3.968,-3.9619,-3.9708,-3.9861,-3.9875,-3.9683,-3.9681,-3.968,0,-3.9723,-3.975,-3.9792,-3.9794,-3.9779,-3.98,-3.9794,-3.9788,-3.9797,-3.9804,-3.9809,-3.982,-3.9826,-3.9836,-3.9807,-3.977,-3.9856,-3.9799,-3.9846,-3.9847,-3.9865,-3.9863,-4.0019,-3.9874,-3.9874,-3.9874,-3.9873,0,-3.9841,-3.9883,-3.9841,-3.9867,-3.9912,-3.9875,-3.9921,-3.991,-3.9905,-3.9927,-3.9884,-3.9907,-3.9867,-3.9886,-3.9864,-3.9905,-3.9908,-3.9899,-3.9892,-3.9901,-3.9902,-3.9905,-3.9896,-3.9877,-3.9876,-3.9876,-3.9875,0,-3.997,-3.9943,-3.9985,-3.9968,-3.9964,-3.9998,-3.9983,-4.0006,-3.9989,-4.0018,-4.0023,-3.9996,-4.0016,-3.9988,-4.0005,-3.999,-4.0046,-4.003,-4.0047,-4.0041,-4.0089,-4.0084,-4.025,-4.0269,-4.0113,-4.0115,-4.0116,0,-4.0046,-4.0076,-4.0062,-4.0073,-4.007,-4.0091,-4.0099,-4.0064,-4.0075,-4.0073,-4.0097,-4.0113,-4.0123,-4.0157,-4.0139,-4.0152,-4.0135,-4.0192,-4.0137,-4.0145,-4.0134,-4.0132,-4.0134,-4.0203,-4.0205,-4.0207,-4.0208,0,-4.0183,-4.0168,-4.0182,-4.0191,-4.0202,-4.0208,-4.0211,-4.0223,-4.0186,-4.0201,-4.022,-4.0228,-4.0246,-4.0262,-4.027,-4.0265,-4.023,-4.0226,-4.0237,-4.0246,-4.0254,-4.0248,-4.0076,-4.0222,-4.022,-4.0219,-4.0219,-4.0218,-4.0286,-4.031,-4.0303,-4.032,-4.0318,-4.0322,-4.0342,-4.0327,-4.0343,-4.0353,-4.0332,-4.0357,-4.0352,-4.0359,-4.0358,-4.0377,-4.0352,-4.0369,-4.0372,-4.0377,-4.0383,-4.0252,-4.0379,-4.0378,-4.0378,-4.0378,-4.0377,0,-4.0419,-4.0412,-4.0428,-4.0432,-4.0446,-4.0412,-4.0413,-4.0426,-4.0448,-4.0447,-4.0458,-4.048,-4.0496,-4.048,-4.0492,-4.051,-4.0495,-4.0514,-4.0512,-4.0511,-4.0406,-4.0394,-4.0527,-4.0527,-4.0527,-4.0527,-4.0527,-4.0527,-4.049,-4.0529,-4.0514,-4.0552,-4.0544,-4.0567,-4.0571,-4.0574,-4.0572,-4.0598,-4.0611,-4.06,-4.0592,-4.0604,-4.0617,-4.0612,-4.0617,-4.0643,-4.0632,-4.0533,-4.0519,-4.0504,-4.0493,-4.0645,-4.0645,-4.0735,-4.0736,-4.0737]},{"header":{"parameterUnit":"m.s-1","parameterCategory":1,"la1":30.2991,"la2":30.254,"lo1":-89.0895,"lo2":-89.0444,"dy":0.0017,"dx":0.0017,"nx":28,"ny":28,"refTime":"2023-09-04T21:00:00:Z","depth":0,"parameterNumber":3,"parameterNumberName":"V-component_of_WINDS"},"data":[0,0,0,0,0,0,0,0,0,0,0,0,0,0,0,0,0,0,0,0,0,0,0,0,0,0,0,0,0,0,0,0,0,0,0,0,0,0,0,0,0,0,0,0,0,0,0,0,0,0,0,0,0,0,0,0,0,0,4.6563,4.6564,0,4.6628,4.6629,4.663,4.6589,4.6588,4.6586,4.6584,4.6645,4.6648,4.6652,0,0,0,0,0,0,0,0,0,0,0,0,0,4.6399,4.6403,4.6563,4.6564,4.6565,4.6628,4.6629,4.663,4.659,4.6587,4.6585,4.6583,4.6644,4.6648,4.6652,0,0,0,0,0,0,0,0,0,0,0,0,0,4.6468,4.6404,4.6563,4.6553,4.6552,4.6628,4.6629,4.663,4.659,4.6587,4.6585,4.6582,4.6643,4.6648,4.6653,4.6741,0,0,4.6668,4.667,0,0,0,0,0,0,0,0,4.6464,4.6474,4.6553,4.6554,4.6553,4.6598,4.6594,4.6667,4.6591,4.6576,4.6584,4.6581,4.6631,4.6637,4.6656,4.6744,4.6746,4.6669,4.6672,4.6674,4.6675,0,0,0,0,0,0,0,4.6459,4.6471,4.6589,4.6555,4.6555,4.6543,4.655,4.6608,4.6618,4.6577,4.6574,4.6583,4.6631,4.6651,4.6657,4.6747,4.6669,4.6673,4.6676,4.6678,4.691,4.6913,0,0,0,0,0,0,4.6456,4.6467,4.6587,4.6591,4.6501,4.6548,4.6556,4.6586,4.6618,4.662,4.6585,4.658,4.6643,4.6651,4.6659,4.6763,4.6674,4.6679,4.6682,4.6907,4.6911,4.6914,0,0,0,0,0,0,4.6453,4.6467,4.6584,4.6528,4.6543,4.6554,4.6589,4.6589,4.6609,4.6624,4.6625,4.6604,4.6641,4.6651,4.6721,4.6764,4.6681,4.6686,4.6903,4.6908,4.6912,4.6973,0,0,0,0,0,0,4.6448,4.6466,4.6501,4.653,4.6546,4.6647,4.6592,4.6593,4.6619,4.6613,4.6642,4.6644,4.664,4.6714,4.6726,4.677,4.669,4.6899,4.6905,4.6911,4.6967,4.6979,4.6989,0,0,0,0,0,4.6443,4.6514,4.6503,4.6518,4.659,4.665,4.6659,4.6654,4.6622,4.6656,4.6666,4.6643,4.6758,4.6721,4.6735,4.6781,4.6897,4.6904,4.6911,4.6962,4.6977,4.6989,0,0,0,0,0,0,4.6489,4.6518,4.6506,4.6589,4.6618,4.6643,4.6685,4.667,4.6707,4.67,4.6692,4.6698,4.6771,4.6783,4.6741,4.6867,4.6822,4.6832,4.6856,4.6871,4.6882,4.6876,4.6694,0,0,0,0,0,4.6509,4.6557,4.6579,4.6651,4.6666,4.6674,4.67,4.6694,4.6722,4.6733,4.6748,4.6775,4.6817,4.6845,4.6884,4.6969,4.6974,4.7008,4.7019,4.7028,4.7036,4.708,4.7095,4.6937,4.6937,4.6937,0,0,4.655,4.6572,4.6603,4.6661,4.6682,4.673,4.6684,4.6737,4.6772,4.6741,4.6807,4.6819,4.6848,4.6926,4.6961,4.6938,4.7081,4.7037,4.7044,4.7047,4.7089,4.7104,4.7117,4.6942,4.6941,4.694,0,0,4.665,4.6673,4.6734,4.6757,4.6791,4.6795,4.681,4.6838,4.6846,4.6913,4.6891,4.6932,4.7005,4.7026,4.7047,4.7156,4.7136,4.717,4.7227,4.727,4.7283,4.7294,4.7331,4.7345,4.7178,4.7178,4.7178,0,4.6697,4.677,4.6767,4.6822,4.6848,4.6825,4.6886,4.6907,4.6951,4.6969,4.6944,4.7035,4.7053,4.7135,4.7162,4.718,4.7195,4.7165,4.7282,4.7292,4.7303,4.7338,4.7352,4.7182,4.7181,4.7181,4.7181,0,4.6825,4.6876,4.6922,4.6967,4.6998,4.7055,4.706,4.7091,4.7083,4.709,4.7158,4.718,4.7223,4.7243,4.7235,4.7323,4.7308,4.7283,4.7237,4.7322,4.7354,4.7368,4.7187,4.7186,4.7185,4.7184,0,0,4.6953,4.6998,4.7014,4.7034,4.707,4.7108,4.7165,4.7209,4.7235,4.7267,4.7313,4.7376,4.7353,4.7376,4.7371,4.741,4.7493,4.7379,4.738,4.7398,4.759,4.7607,4.7623,4.7481,4.7484,4.7486,4.7587,0,4.7054,4.7154,4.7154,4.7245,4.7292,4.7271,4.732,4.7346,4.7355,4.7394,4.7403,4.7447,4.7414,4.7428,4.7466,4.7475,4.7531,4.7468,4.7521,4.7523,4.7512,4.764,4.7659,4.7753,4.76,4.7602,4.7603,0,4.7184,4.7222,4.7319,4.7348,4.7367,4.7412,4.7452,4.7491,4.752,4.7523,4.755,4.7539,4.7595,4.7549,4.7625,4.7582,4.7604,4.7612,4.7616,4.7618,4.7567,4.7645,4.7783,4.7797,4.7624,4.7622,4.7621,0,4.7266,4.7341,4.7409,4.7427,4.7463,4.7494,4.751,4.7537,4.7563,4.7598,4.7615,4.7656,4.7677,4.7708,4.7708,4.7675,4.7784,4.7739,4.7787,4.7787,4.7808,4.7807,4.795,4.7826,4.7826,4.7826,4.7826,0,4.7377,4.7437,4.7446,4.7487,4.7553,4.7552,4.7616,4.7629,4.7653,4.7695,4.768,4.772,4.7718,4.7758,4.7758,4.782,4.783,4.7833,4.7831,4.7833,4.7832,4.7845,4.7838,4.783,4.7829,4.7828,4.7827,0,4.7479,4.7488,4.7559,4.7589,4.7597,4.7644,4.7668,4.7707,4.7714,4.7768,4.778,4.7792,4.7838,4.7842,4.7894,4.7894,4.7969,4.7961,4.7959,4.7957,4.8004,4.7999,4.8159,4.818,4.8044,4.8046,4.8047,0,4.7548,4.7594,4.7628,4.7656,4.7675,4.772,4.7748,4.7748,4.7777,4.7814,4.7848,4.7893,4.7929,4.8003,4.8015,4.8055,4.8047,4.8101,4.8053,4.8053,4.8046,4.8043,4.8046,4.8109,4.8111,4.8112,4.8113,0,4.767,4.7672,4.7713,4.7756,4.779,4.7824,4.7855,4.7878,4.7882,4.7915,4.7963,4.7991,4.8046,4.809,4.813,4.8145,4.8129,4.8129,4.8142,4.8142,4.8138,4.8139,4.7982,4.8124,4.8123,4.8122,4.8122,4.8121,4.7756,4.7795,4.7826,4.7872,4.7896,4.7926,4.7963,4.7977,4.8017,4.8063,4.8061,4.8113,4.8141,4.8193,4.8211,4.8251,4.8232,4.8251,4.8256,4.826,4.8264,4.8134,4.8258,4.8258,4.8257,4.8257,4.8257,0,4.7875,4.7894,4.7937,4.7982,4.8018,4.8003,4.8037,4.8068,4.8115,4.8143,4.8179,4.8233,4.8276,4.8293,4.8334,4.8363,4.8357,4.8374,4.837,4.8374,4.8279,4.8263,4.8378,4.8378,4.8378,4.8378,4.8378,4.8378,4.7941,4.8007,4.8013,4.809,4.8108,4.816,4.8181,4.8208,4.823,4.8292,4.8329,4.834,4.8362,4.8406,4.8444,4.8448,4.8463,4.8482,4.8483,4.8393,4.8381,4.8369,4.8354,4.8486,4.8486,4.8574,4.8575,4.8576]}]]